DW9686 Weather Reports


time (UTC)temp
F
wind
direction
speed
knots
gust
knots
rain 1hr
in
rain 24hr
in
rain mn
in
humidity
%
barometer
mb
20260904051543 57 152 4.3 8.7 0.00 0.00 0.00 70 1009.2
20260904050037 58 145 6.1 12.2 0.00 0.00 0.00 69 1009.2
20260904044542 59 140 7.8 13.0 0.00 0.00 0.00 68 1008.9
20260904043052 59 155 1.7 5.2 0.00 0.00 0.00 69 1008.8
20260904041540 59 0 0.0 0.0 0.00 0.00 0.00 69 1008.5
20260904040042 59 0 0.0 1.7 0.00 0.00 0.00 70 1008.6
20260904034541 60 0 0.0 2.6 0.00 0.00 0.00 72 1008.5
20260904033040 60 0 0.9 4.3 0.00 0.00 0.00 70 1008.5
20260904031538 60 0 0.0 4.3 0.00 0.00 0.00 70 1008.5
20260904030055 61 155 1.7 5.2 0.00 0.00 0.00 69 1008.3
20260904024543 62 155 2.6 4.3 0.00 0.01 0.00 67 1008.1
20260904023042 62 0 0.0 0.0 0.00 0.01 0.00 68 1008.0
20260904021550 63 0 0.0 5.2 0.00 0.01 0.00 67 1008.0
20260904020036 63 155 0.9 2.6 0.00 0.01 0.00 69 1008.2
20260904014542 64 155 0.9 3.5 0.00 0.01 0.00 67 1008.3
20260904013037 64 0 1.7 4.3 0.00 0.01 0.00 66 1008.2
20260904011542 64 155 1.7 4.3 0.00 0.01 0.00 66 1008.2
20260904010036 65 155 1.7 5.2 0.00 0.01 0.00 60 1008.3
20260904004538 66 155 3.5 7.0 0.00 0.01 0.00 56 1008.4
20260904003037 66 155 4.3 7.8 0.00 0.01 0.00 56 1008.5
20260904001537 66 156 4.3 7.8 0.00 0.01 0.00 56 1008.6
20260904000038 66 163 4.3 8.7 0.00 0.01 0.00 54 1008.7
20260903234540 67 167 5.2 9.6 0.00 0.01 0.00 53 1008.7
20260903233039 67 180 4.3 7.0 0.00 0.01 0.00 53 1008.7
20260903231545 67 191 2.6 7.0 0.00 0.01 0.00 52 1008.9
20260903230041 68 188 6.1 10.4 0.00 0.01 0.00 51 1009.0
20260903224539 68 149 6.1 9.6 0.00 0.01 0.00 48 1009.2
20260903223040 66 205 5.2 10.4 0.00 0.01 0.00 53 1009.5
20260903221541 66 200 6.1 9.6 0.00 0.01 0.00 57 1009.3
20260903220044 66 171 4.3 10.4 0.00 0.01 0.00 57 1009.4
20260903214537 66 196 6.1 12.2 0.00 0.01 0.00 52 1009.4
20260903213039 66 186 4.3 10.4 0.00 0.01 0.00 58 1009.7
20260903211544 66 155 6.1 9.6 0.00 0.01 0.00 52 1009.8
20260903210052 66 174 5.2 7.8 0.00 0.01 0.00 55 1009.8
20260903204545 66 161 5.2 12.2 0.00 0.01 0.00 56 1009.9
20260903203036 65 171 6.1 10.4 0.00 0.01 0.00 60 1010.0
20260903201537 65 177 5.2 8.7 0.00 0.01 0.00 59 1009.9
20260903200037 64 184 7.0 10.4 0.00 0.01 0.00 59 1010.1
20260903194538 64 178 7.0 10.4 0.00 0.01 0.00 59 1010.3
20260903193036 64 184 5.2 9.6 0.00 0.01 0.00 61 1010.4
20260903191537 64 186 6.1 9.6 0.00 0.01 0.00 62 1010.5
20260903190041 64 220 3.5 7.8 0.00 0.01 0.00 61 1010.7
20260903184544 63 238 1.7 7.8 0.00 0.01 0.00 61 1011.1
20260903183045 63 215 3.5 7.0 0.00 0.01 0.00 66 1011.1
20260903181541 62 216 5.2 9.6 0.00 0.01 0.00 64 1011.1
20260903180041 62 242 6.1 11.3 0.00 0.01 0.00 70 1011.1
20260903174540 61 192 6.1 11.3 0.00 0.01 0.00 68 1011.0
20260903173039 60 202 4.3 7.8 0.00 0.01 0.00 75 1011.1
20260903171545 59 200 2.6 7.0 0.00 0.01 0.00 77 1011.1
20260903170106 59 201 5.2 7.0 0.00 0.01 0.00 77 1011.0
20260903164544 58 192 5.2 7.8 0.00 0.01 0.00 78 1011.0
20260903163044 58 190 3.5 6.1 0.00 0.01 0.00 81 1011.2
20260903161539 57 188 5.2 7.8 0.00 0.01 0.00 82 1010.9
20260903160040 57 196 2.6 6.1 0.00 0.01 0.00 85 1010.9
20260903154544 55 195 2.6 4.3 0.00 0.01 0.00 87 1011.1
20260903153044 55 195 1.7 5.2 0.00 0.01 0.00 87 1011.0
20260903151558 55 195 3.5 6.1 0.00 0.01 0.00 88 1011.0
20260903150047 54 198 3.5 7.0 0.00 0.01 0.00 90 1011.0
20260903144538 53 197 3.5 6.1 0.00 0.01 0.00 91 1010.9
20260903143040 52 197 0.0 2.6 0.00 0.01 0.00 92 1010.7
20260903141542 51 0 0.0 1.7 0.00 0.01 0.00 92 1010.7
20260903140039 51 0 0.9 2.6 0.00 0.01 0.00 91 1010.5
20260903134537 51 197 2.6 3.5 0.00 0.01 0.00 92 1010.5
20260903133039 51 197 0.9 4.3 0.00 0.01 0.00 91 1010.3
20260903131538 51 0 0.0 4.3 0.00 0.01 0.00 91 1010.1
20260903130042 51 197 4.3 7.8 0.00 0.01 0.00 91 1009.9
20260903124542 52 202 5.2 8.7 0.00 0.01 0.00 91 1009.7
20260903123044 52 207 3.5 5.2 0.00 0.01 0.00 91 1009.6
20260903121537 52 208 3.5 6.1 0.00 0.01 0.00 90 1009.7
20260903120046 53 207 4.3 7.8 0.00 0.01 0.00 90 1009.6
20260903114542 53 0 0.0 3.5 0.00 0.01 0.00 90 1009.5
20260903113044 53 205 0.9 4.3 0.00 0.01 0.00 90 1009.5
20260903111536 54 202 4.3 7.0 0.00 0.01 0.00 90 1009.3
20260903110041 54 200 3.5 7.0 0.00 0.01 0.00 89 1009.1
20260903104540 55 198 4.3 7.0 0.00 0.01 0.00 89 1008.9
20260903103044 55 188 6.1 10.4 0.00 0.01 0.00 90 1008.9
20260903101544 55 174 4.3 9.6 0.00 0.01 0.00 91 1009.0
20260903100044 55 173 3.5 8.7 0.00 0.01 0.00 92 1009.0
20260903094555 55 163 3.5 6.1 0.00 0.01 0.00 92 1008.9
20260903093045 56 163 4.3 6.1 0.00 0.01 0.00 92 1008.9
20260903091544 56 163 5.2 8.7 0.00 0.01 0.00 92 1008.7
20260903090039 56 163 5.2 8.7 0.00 0.01 0.00 92 1008.7
20260903084537 56 163 6.1 9.6 0.00 0.01 0.00 92 1008.7
20260903083043 56 163 3.5 7.0 0.00 0.01 0.00 92 1008.5
20260903081540 56 163 5.2 9.6 0.00 0.01 0.00 92 1008.3
20260903080055 57 170 3.5 6.1 0.00 0.01 0.00 91 1008.6
20260903074539 57 170 3.5 6.1 0.00 0.01 0.00 91 1008.5
20260903073215 57 170 3.5 7.0 0.00 0.01 0.00 90 1008.4
20260903071538 57 170 5.2 7.8 0.00 0.01 0.00 89 1008.3
20260903070044 57 175 3.5 7.0 0.00 0.01 0.00 88 1008.2
20260903064539 57 177 2.6 6.1 0.00 0.01 0.01 87 1008.2
20260903063039 58 177 5.2 10.4 0.00 0.01 0.01 87 1008.1
20260903061537 58 173 7.8 11.3 0.00 0.01 0.01 87 1008.0
20260903060039 58 166 7.0 12.2 0.00 0.01 0.01 87 1008.0
20260903054538 58 174 7.8 13.0 0.00 0.01 0.01 88 1008.0
20260903053036 58 167 7.8 13.0 0.00 0.01 0.01 90 1008.1